Kahului, HI

3:08 PM HST on March 26, 2017 (GMT -1000)
Kahului

Weather History for PHOG - April, 2013

Change the Weather History Date:

Thursday, April 18, 2013

  Actual Average Record
Temperature  
Mean Temperature 79 °F 74 °F  
Max Temperature 86 °F 83 °F 89 °F (1951)
Min Temperature 71 °F 66 °F 60 °F (1973)
Degree Days  
Heating Degree Days 0 0  
Month to date heating degree days 0 0  
Since 1 July heating degree days 0 0  
Cooling Degree Days 14 9  
Month to date cooling degree days 176 162  
Year to date cooling degree days 842 816  
Growing Degree Days 28 (Base 50)    
Moisture  
Dew Point 70 °F    
Average Humidity 82    
Maximum Humidity 93    
Minimum Humidity 70    
Precipitation  
Precipitation 0.00 in 0.05 in 0.27 in (1979)
Month to date precipitation 0.01 1.08  
Year to date precipitation 6.14 8.29  
Snow  
Snow 0.00 in - - ()
Month to date snowfall 0.0  
Since 1 July snowfall 0.0  
Snow Depth 0.00 in    
Sea Level Pressure  
Sea Level Pressure 30.12 in    
Wind  
Wind Speed 16 mph (ENE)    
Max Wind Speed 28 mph    
Max Gust Speed 39 mph    
Visibility 10 miles    
Events      
T = Trace of Precipitation, MM = Missing Value Source: NWS Daily Summary

Daily Weather History Graph

Daily Weather History Graph

Search for Another Location

Airport or City:

Trip Planner

Search our weather history database for the weather conditions in past years. The results will help you decide how hot, cold, wet, or windy it might be!

Date:

Astronomy

Apr. 18, 2013 Rise Set
Actual Time 6:04 AM HST 6:45 PM HST
Civil Twilight 5:41 AM HST 7:08 PM HST
Nautical Twilight 5:14 AM HST 7:35 PM HST
Astronomical Twilight 4:47 AM HST 8:02 PM HST
Moon 12:33 PM HST (4/18) 12:58 AM HST (4/18)
Length of Visible Light 13h 27m
Length of Day
12h 41m
First Quarter, 54% of the Moon is Illuminated
Apr 18
First Quarter
Apr 25
Full
May 2
Last Quarter
May 9
New
May 17
First Quarter

Hourly Weather History & Observations

Time (HST) Temp. Heat Index Dew Point Humidity Pressure Visibility Wind Dir Wind Speed Gust Speed Precip Events Conditions
12:54 AM 72.0 °F - 69.1 °F 91% 30.14 in 10.0 mi ENE 15.0 mph - N/A   Clear
1:54 AM 72.0 °F - 69.1 °F 91% 30.12 in 10.0 mi NE 13.8 mph - N/A   Clear
2:54 AM 72.0 °F - 69.1 °F 91% 30.10 in 10.0 mi NE 15.0 mph 18.4 mph N/A   Partly Cloudy
3:54 AM 71.1 °F - 66.9 °F 87% 30.10 in 10.0 mi East 10.4 mph - N/A   Clear
4:54 AM 72.0 °F - 66.9 °F 84% 30.11 in 10.0 mi ENE 9.2 mph - N/A   Partly Cloudy
5:54 AM 71.1 °F - 68.0 °F 90% 30.12 in 10.0 mi Calm Calm - N/A   Partly Cloudy
6:54 AM 73.0 °F - 69.1 °F 87% 30.14 in 10.0 mi NE 12.7 mph - N/A   Scattered Clouds
7:54 AM 75.9 °F - 70.0 °F 82% 30.14 in 10.0 mi NE 19.6 mph - N/A   Scattered Clouds
8:54 AM 78.1 °F - 71.1 °F 79% 30.16 in 10.0 mi ENE 15.0 mph 29.9 mph N/A   Scattered Clouds
9:54 AM 80.1 °F 83.8 °F 72.0 °F 76% 30.16 in 10.0 mi ENE 20.7 mph 26.5 mph N/A   Partly Cloudy
10:54 AM 82.0 °F 87.4 °F 73.0 °F 74% 30.14 in 10.0 mi ENE 19.6 mph 29.9 mph N/A   Scattered Clouds
11:54 AM 82.9 °F 89.4 °F 73.9 °F 74% 30.14 in 10.0 mi ENE 20.7 mph 31.1 mph N/A   Scattered Clouds
12:54 PM 86.0 °F 95.1 °F 75.0 °F 70% 30.11 in 10.0 mi ENE 23.0 mph 31.1 mph N/A   Scattered Clouds
1:54 PM 84.0 °F 91.2 °F 73.9 °F 72% 30.08 in 10.0 mi East 23.0 mph 39.1 mph N/A   Scattered Clouds
2:54 PM 82.9 °F 88.8 °F 73.0 °F 72% 30.07 in 10.0 mi ENE 26.5 mph 34.5 mph N/A   Scattered Clouds
3:54 PM 81.0 °F 85.2 °F 72.0 °F 74% 30.07 in 10.0 mi ENE 25.3 mph 35.7 mph N/A   Scattered Clouds
4:54 PM 79.0 °F - 71.1 °F 77% 30.07 in 10.0 mi ENE 25.3 mph 33.4 mph N/A   Scattered Clouds
5:54 PM 77.0 °F - 71.1 °F 82% 30.09 in 10.0 mi ENE 19.6 mph 27.6 mph N/A   Scattered Clouds
6:54 PM 75.0 °F - 68.0 °F 79% 30.12 in 10.0 mi ENE 16.1 mph 25.3 mph N/A   Scattered Clouds
7:54 PM 73.9 °F - 70.0 °F 87% 30.14 in 10.0 mi ENE 19.6 mph 25.3 mph N/A   Scattered Clouds
8:54 PM 73.0 °F - 69.1 °F 87% 30.16 in 10.0 mi NE 12.7 mph - N/A   Scattered Clouds
9:54 PM 73.0 °F - 69.1 °F 87% 30.16 in 10.0 mi NE 17.3 mph - N/A   Scattered Clouds
10:54 PM 73.0 °F - 66.0 °F 79% 30.15 in 10.0 mi NE 12.7 mph 21.9 mph N/A   Partly Cloudy
11:54 PM 72.0 °F - 66.9 °F 84% 30.13 in 10.0 mi SE 10.4 mph - N/A   Clear